Regional Weather Roundup
Issued by NWS

Home | Current Version | Previous Version | Text Only | Print | Product List | Glossary On
Versions: 1 2 3 4 5 6 7 8 9 10 11 12 13 14 15 16 17 18 19 20 21 22 23 24 25 26 27 28 29 30 31 32 33 34 35 36 37 38 39 40 41 42 43 44 45 46 47 48 49 50
000
ASUS45 KSLC 080010
RWRUT

UTAH REGIONAL WEATHER ROUNDUP
NATIONAL WEATHER SERVICE SALT LAKE CITY UT
600 PM MDT TUE JUL 07 2015

UTZ001>011-023>025-080100-

NORTHERN UTAH

CITY           SKY/WX    TMP DP  RH WIND       PRES   REMARKS
BRIGHAM CITY   PTSUNNY   83  45  26 SE12      29.96F
HILL AFB       PTSUNNY   74  54  48 E18       29.99F
LOGAN          SUNNY     78  53  41 S15       29.98S
OGDEN          PTSUNNY   79  56  45 S6        29.97F
PROVO AIRPORT  MOSUNNY   77  52  41 CALM      30.00F
SALT LAKE CITY CLOUDY    81  54  39 E15       29.96F
VERNAL         PTSUNNY   76  47  35 W7        30.02F
WENDOVER       PTSUNNY   88  45  22 SE12      29.93S
HEBER CITY     CLOUDY    64  54  68 NW12      30.10S
WEST JORDAN    SUNNY     81  52  36 SE6       29.99F

$$

UTZ012>022-026-027-080100-

SOUTHERN/CENTRAL UTAH

CITY           SKY/WX    TMP DP  RH WIND       PRES   REMARKS
BLANDING       CLOUDY    68  55  63 S5        30.14F
BRYCE CANYON   PTSUNNY   64  50  60 SE13      30.20F
CEDAR CITY     MOSUNNY   80  43  26 VRB3      30.05F
DELTA          PTSUNNY   85  42  22 NE9       29.97S
HANKSVILLE     MOSUNNY   79  46  31 NW6       29.98F
MILFORD        PTSUNNY   80  42  25 W20       30.00S
MOAB/CYNLANDS  CLOUDY    81  49  32 MISG      29.96F
PRICE          LGT RAIN  66  51  58 NW15G25   30.11R
ST GEORGE      CLOUDY    93  48  21 CALM      29.88F HX  90
KANAB          SUNNY     82  46  28 CALM      30.08F

$$

REGIONAL REPORTS     COLORADO/ARIZONA

CITY           SKY/WX    TMP DP  RH WIND       PRES   REMARKS
CRAIG, CO      CLOUDY    68  52  56 S3        30.10F
GRAND JUNCTION CLOUDY    71  57  61 SE8       30.01F
RIFLE          CLOUDY    71  56  58 S8        30.05F
MONTROSE       CLOUDY    64  57  78 SE8       30.11S
CORTEZ         MOSUNNY   70  52  52 N16G24    30.09S THUNDER
PAGE, AZ       SUNNY     87  46  24 N9        29.96F
GRAND CANYON   MOSUNNY   76  45  33 SW14      30.16F
KINGMAN        PTSUNNY   93  47  20 SW13      29.92F
FLAGSTAFF      CLOUDY    58  55  90 SW9       30.24S

$$

REGIONAL REPORTS    NEVADA/IDAHO/WYOMING

CITY           SKY/WX    TMP DP  RH WIND       PRES   REMARKS
LAS VEGAS, NV  MOSUNNY  100  48  17 S7        29.75F HX  96
ELY            CLOUDY    73  43  33 CALM      30.13F
ELKO           CLOUDY    77  44  30 SW25G32   30.02R
POCATELLO, ID  MOSUNNY   89  36  15 NW7       29.94F
BURLEY         PTSUNNY   86  43  22 W8        29.91F
EVANSTON, WY   LGT RAIN  54  50  86 SE13      30.19F
ROCK SPRINGS   TSTM      56  52  86 VRB5      30.18R FOG
KEMMERER       CLOUDY    63  45  51 W3        30.18S

$$


USA.gov is the U.S. government's official web portal to all federal, state and local government web resources and services.